Weather in Kozlovka

Russia / Chuvash Republic     55°50′25″N   48°14′42″E
temp.,
°C
wind,
m/s
gust,
m/s
humid.,
%
clouds,
%
prec.,
mm/h
press.,
hPa
HPBL,
m
21 january, fri
fri2100:00−9ssw61489100 0.0 1016381
03:00−11ssw6128882 0.0 1016323
06:00−13s51391100 0.0 1016249
09:00−13s61492100 0.0 1017272
12:00−11s61489100 0.0 1017362
15:00−10sse61390100 0.0 1017319
18:00−11sse61592100 0.0 1016343
21:00−11sse71692100 0.0 1016407
22 january, sat
sat2200:00−10sse71791100 0.0 1015461
03:00−9sse81794100 0.3 1015573
06:00−9sse71492100 0.6 1015510
09:00−8sse61294100 0.9 1017455
12:00−7se51095100 0.1 1018402
15:00−6se51094100 0.4 1019408
18:00−6se4996100 0.3 1020360
21:00−6se4896100 0.8 1021375
23 january, sun
sun2300:00−6se4996100 1.2 1022385
03:00−5sse4996100 1.8 1023402
06:00−5sse4996100 0.4 1024361
09:00−6sse4896100 0.7 1027322
12:00−5sse4795100 0.3 1028369
15:00−5sse3696100 0.8 1030333
18:00−6sse3696100 0.3 1032195
21:00−6sse2597100 0.7 1034185
24 january, mon
mon2400:00−6sse2497100 0.5 1035178
03:00−7sse2496100 1.0 1036135
06:00−7sse2496100 0.5 1036132
09:00−8ese1197100 0.6 103725
12:00−7se128791 0.0 1038125
15:00−10sse119356 0.0 103810
18:00−16se11965 0.0 10389
21:00−18s11985 0.0 10389
25 january, tue
tue2500:00−20s1110016 0.0 10379
03:00−20s2210036 0.0 103711
06:00−21s2210042 0.0 103515
09:00−20s229938 0.0 103430
12:00−13s24895 0.0 1033105
15:00−14sse229319 0.0 103121
18:00−19s229755 0.0 103018
21:00−19s2298100 0.0 103024